GW5770 Weather Reports


time (UTC)temp
C
wind
direction
speed
KPH
gust
KPH
rain 1hr
cm
rain 24hr
cm
rain mn
cm
humidity
%
barometer
mb
20260507140426 11 267 1.6 3.2 0.00 0.18 0.18 65 1013.7
20260507135924 11 244 1.6 3.2 0.00 0.18 0.18 65 1013.7
20260507135420 11 253 1.6 1.6 0.00 0.18 0.18 65 1013.9
20260507134918 12 296 0.0 6.4 0.00 0.18 0.18 63 1013.8
20260507134414 12 253 0.0 0.0 0.00 0.18 0.18 65 1013.7
20260507133910 11 254 0.0 0.0 0.00 0.18 0.18 64 1013.8
20260507133406 11 287 1.6 4.8 0.00 0.18 0.18 64 1013.8
20260507132905 11 301 1.6 4.8 0.00 0.18 0.18 63 1014.0
20260507132401 11 27 1.6 4.8 0.00 0.18 0.18 65 1013.9
20260507131858 11 266 3.2 4.8 0.00 0.18 0.18 67 1013.7
20260507131355 11 329 1.6 6.4 0.00 0.18 0.18 66 1013.9
20260507130852 11 238 0.0 1.6 0.00 0.18 0.18 69 1013.7
20260507130349 11 52 1.6 11.3 0.00 0.18 0.18 69 1013.8
20260507125848 11 256 0.0 3.2 0.00 0.18 0.18 72 1013.5
20260507125345 11 284 0.0 1.6 0.00 0.18 0.18 72 1013.8
20260507124842 11 282 0.0 3.2 0.00 0.18 0.18 74 1013.9
20260507124338 11 247 0.0 1.6 0.00 0.18 0.18 73 1013.8
20260507123837 11 310 0.0 0.0 0.00 0.18 0.18 74 1013.6
20260507123334 11 258 1.6 3.2 0.00 0.18 0.18 75 1014.0
20260507122830 11 246 0.0 1.6 0.00 0.18 0.18 75 1013.9
20260507122325 11 258 1.6 3.2 0.00 0.18 0.18 74 1013.7
20260507121823 11 277 0.0 0.0 0.00 0.18 0.18 77 1013.6
20260507121317 11 254 0.0 1.6 0.00 0.18 0.18 74 1013.7
20260507120814 11 258 0.0 1.6 0.00 0.18 0.18 75 1013.7
20260507120310 11 229 0.0 1.6 0.00 0.18 0.18 75 1013.6
20260507115807 11 304 0.0 1.6 0.00 0.18 0.18 76 1013.5
20260507115306 11 56 1.6 9.7 0.00 0.18 0.18 76 1013.5
20260507114758 11 247 3.2 6.4 0.00 0.18 0.18 79 1013.6
20260507114256 11 166 0.0 0.0 0.00 0.18 0.18 83 1013.3
20260507113753 11 250 0.0 4.8 0.00 0.18 0.18 86 1013.3
20260507113250 11 249 1.6 3.2 0.00 0.18 0.18 88 1013.2
20260507112748 11 73 0.0 1.6 0.00 0.18 0.18 91 1013.2
20260507112244 12 286 3.2 3.2 0.00 0.18 0.18 93 1013.3
20260507111742 12 256 0.0 1.6 0.00 0.18 0.18 94 1013.2
20260507111238 12 258 0.0 1.6 0.00 0.18 0.18 95 1013.1
20260507110735 12 257 0.0 0.0 0.00 0.18 0.18 95 1013.2
20260507110231 12 348 0.0 0.0 0.00 0.18 0.18 95 1013.1
20260507105728 12 269 0.0 0.0 0.00 0.18 0.18 96 1013.2
20260507105224 12 268 0.0 0.0 0.00 0.18 0.18 96 1013.2
20260507104722 12 269 0.0 0.0 0.00 0.18 0.18 96 1013.1
20260507104218 12 268 0.0 0.0 0.00 0.18 0.18 96 1012.8
20260507103714 12 269 0.0 1.6 0.00 0.18 0.18 96 1012.8
20260507103211 12 262 0.0 0.0 0.00 0.18 0.18 96 1012.8
20260507102707 12 260 0.0 1.6 0.00 0.18 0.18 96 1012.8
20260507102204 12 259 0.0 0.0 0.00 0.18 0.18 96 1012.6
20260507101700 12 259 0.0 0.0 0.00 0.18 0.18 96 1012.5
20260507101155 12 260 0.0 0.0 0.00 0.18 0.18 96 1012.6
20260507100653 12 351 0.0 1.6 0.00 0.18 0.18 96 1012.8
20260507100151 12 228 0.0 0.0 0.00 0.18 0.18 96 1012.5
20260507095649 12 258 0.0 0.0 0.00 0.18 0.18 96 1012.6
20260507095145 12 258 0.0 0.0 0.00 0.18 0.18 96 1012.6
20260507094642 12 245 0.0 0.0 0.00 0.18 0.18 96 1012.7
20260507094138 12 229 0.0 0.0 0.00 0.18 0.18 96 1012.6
20260507093636 12 230 0.0 0.0 0.00 0.18 0.18 96 1012.5
20260507093134 12 229 0.0 0.0 0.00 0.18 0.18 96 1012.6
20260507092631 12 229 0.0 0.0 0.00 0.18 0.18 96 1012.7
20260507092127 12 225 0.0 0.0 0.00 0.18 0.18 95 1012.3
20260507091624 12 325 0.0 0.0 0.00 0.18 0.18 95 1012.2
20260507091120 12 240 0.0 0.0 0.00 0.18 0.18 95 1012.4
20260507090616 12 191 0.0 0.0 0.00 0.18 0.18 95 1012.4
20260507090113 12 254 0.0 0.0 0.00 0.18 0.18 95 1012.6
20260507085610 12 259 0.0 0.0 0.00 0.18 0.18 95 1012.4
20260507085107 12 254 0.0 0.0 0.00 0.18 0.18 95 1012.3
20260507084603 12 255 0.0 0.0 0.00 0.18 0.18 95 1012.2
20260507084101 12 247 0.0 0.0 0.00 0.18 0.18 94 1012.2
20260507083556 12 247 0.0 0.0 0.00 0.18 0.18 94 1012.5
20260507083054 12 247 0.0 0.0 0.00 0.18 0.18 94 1012.4
20260507082549 12 248 0.0 0.0 0.00 0.18 0.18 94 1012.4
20260507082046 12 251 0.0 1.6 0.00 0.18 0.18 94 1012.3
20260507081543 12 222 0.0 0.0 0.00 0.18 0.18 94 1012.1
20260507081040 12 204 0.0 0.0 0.00 0.18 0.18 94 1011.7
20260507080535 12 205 0.0 1.6 0.00 0.18 0.18 94 1011.8
20260507080032 12 250 0.0 3.2 0.00 0.18 0.18 94 1011.6
20260507075527 12 297 3.2 4.8 0.00 0.18 0.18 94 1011.7
20260507075024 12 232 0.0 1.6 0.00 0.18 0.18 94 1011.8
20260507074521 12 259 0.0 4.8 0.00 0.18 0.18 94 1011.8
20260507074020 12 258 0.0 1.6 0.00 0.18 0.18 94 1011.7
20260507073515 12 278 1.6 3.2 0.00 0.18 0.18 94 1011.4
20260507073012 12 253 0.0 1.6 0.00 0.18 0.18 93 1011.4
20260507072509 12 273 1.6 4.8 0.00 0.18 0.18 93 1011.6
20260507072006 12 256 0.0 3.2 0.00 0.18 0.18 93 1011.5
20260507071504 12 305 3.2 3.2 0.13 0.18 0.18 93 1011.5
20260507071000 12 254 1.6 3.2 0.30 0.18 0.18 93 1011.5
20260507070457 12 287 1.6 3.2 0.18 0.15 0.15 93 1011.4
20260507065954 12 273 1.6 11.3 0.00 0.13 0.13 94 1011.5
20260507065451 12 260 0.0 1.6 0.00 0.13 0.13 94 1011.4
20260507064948 12 305 3.2 6.4 0.00 0.13 0.13 94 1011.5
20260507064446 12 227 1.6 3.2 0.00 0.13 0.13 94 1011.6
20260507063944 12 199 0.0 3.2 0.00 0.13 0.13 94 1011.6
20260507063440 12 292 0.0 1.6 0.00 0.13 0.13 94 1011.7
20260507062937 12 227 1.6 3.2 0.00 0.13 0.13 94 1011.6
20260507062434 12 270 0.0 3.2 0.00 0.13 0.13 94 1011.5
20260507061932 12 304 8.0 11.3 0.00 0.13 0.13 94 1011.4
20260507061430 12 326 3.2 4.8 0.00 0.13 0.13 94 1011.4
20260507060928 12 13 3.2 6.4 0.00 0.13 0.13 94 1011.3
20260507060424 12 218 6.4 9.7 0.00 0.13 0.13 94 1011.4
20260507055921 13 338 0.0 4.8 0.00 0.13 0.13 94 1011.5
20260507055416 13 236 1.6 3.2 0.13 0.13 0.13 94 1011.5
20260507054914 13 295 4.8 6.4 0.13 0.13 0.13 93 1011.7
20260507054410 13 218 0.0 3.2 0.00 0.10 0.10 93 1011.5
20260507053907 13 306 1.6 3.2 0.00 0.10 0.10 93 1011.8
20260507053405 13 243 0.0 1.6 0.00 0.10 0.10 93 1011.6
20260507052903 13 277 3.2 6.4 0.00 0.10 0.10 93 1011.8
20260507052400 13 335 1.6 3.2 0.00 0.10 0.10 92 1011.7
20260507051857 13 287 1.6 3.2 0.00 0.10 0.10 92 1011.3
20260507051355 13 262 1.6 3.2 0.00 0.10 0.10 92 1011.4
20260507050851 13 247 1.6 3.2 0.00 0.10 0.10 91 1011.2
20260507050348 13 336 1.6 3.2 0.00 0.10 0.10 91 1011.7
20260507045845 13 356 1.6 3.2 0.18 0.10 0.10 90 1011.7
20260507045341 13 279 1.6 3.2 0.30 0.10 0.10 89 1011.7
20260507044839 13 303 1.6 3.2 0.00 0.05 0.05 88 1011.9
20260507044335 14 14 3.2 4.8 0.00 0.05 0.05 88 1011.7
20260507043831 14 14 1.6 1.6 0.00 0.05 0.05 88 1011.8
20260507043328 15 239 1.6 3.2 0.18 0.05 0.05 86 1011.5
20260507042824 15 91 1.6 6.4 0.36 0.05 0.05 86 1011.7
20260507042320 15 113 3.2 4.8 0.18 0.03 0.03 84 1012.0
20260507041817 16 300 0.0 3.2 0.00 0.00 0.00 83 1011.9
20260507041313 16 251 1.6 3.2 0.00 0.00 0.00 81 1011.5
20260507040811 16 226 0.0 4.8 0.00 0.00 0.00 81 1011.6
20260507040307 16 272 1.6 1.6 0.00 0.00 0.00 81 1011.5
20260507035802 16 2 3.2 3.2 0.00 0.66 0.66 81 1011.4
20260507035258 16 247 0.0 3.2 0.00 0.66 0.66 80 1011.2
20260507034756 16 271 1.6 6.4 0.00 0.66 0.66 78 1011.1
20260507034252 16 59 3.2 9.7 0.00 0.66 0.66 77 1011.1
20260507033751 17 249 1.6 4.8 0.00 0.66 0.66 76 1011.2
20260507033248 17 69 1.6 6.4 0.00 0.66 0.66 75 1011.1
20260507032745 17 304 1.6 12.9 0.00 0.66 0.66 75 1011.2
20260507032241 17 110 0.0 3.2 0.00 0.66 0.66 75 1011.2
20260507031738 17 289 3.2 6.4 0.00 0.66 0.66 75 1011.1
20260507031235 17 30 3.2 9.7 0.00 0.66 0.66 76 1011.3
20260507030731 17 242 3.2 4.8 0.00 0.66 0.66 75 1011.1
20260507030229 17 282 1.6 3.2 0.00 0.66 0.66 75 1010.7
20260507025726 17 292 1.6 4.8 0.00 0.66 0.66 75 1010.4
20260507025223 17 345 4.8 16.1 0.00 0.66 0.66 74 1010.6
20260507024721 17 339 1.6 9.7 0.00 0.66 0.66 74 1010.8
20260507024218 17 54 3.2 11.3 0.00 0.66 0.66 74 1011.0
20260507023714 17 269 12.9 14.5 0.00 0.66 0.66 75 1011.0
20260507023211 17 342 4.8 17.7 0.00 0.66 0.66 75 1010.9
20260507022708 18 68 1.6 6.4 0.00 0.66 0.66 78 1010.6
20260507022204 18 209 1.6 6.4 0.00 0.66 0.66 78 1010.6
20260507021700 18 242 0.0 1.6 0.00 0.66 0.66 79 1010.6
20260507021155 18 201 0.0 3.2 0.00 0.66 0.66 81 1010.6
20260507020655 18 26 0.0 4.8 0.00 0.66 0.66 80 1010.4
20260507020150 18 277 3.2 4.8 0.00 0.66 0.66 80 1010.5
20260507015648 18 320 1.6 9.7 0.00 0.66 0.66 80 1010.2
20260507015145 18 291 4.8 9.7 0.00 0.66 0.66 80 1010.2
20260507014642 18 276 3.2 9.7 0.00 0.66 0.66 80 1010.2
20260507014138 19 266 3.2 11.3 0.00 0.66 0.66 81 1010.1
20260507013635 19 263 1.6 4.8 0.00 0.66 0.66 82 1010.4
20260507013132 20 233 3.2 4.8 0.00 0.66 0.66 82 1010.3
20260507012629 20 300 8.0 11.3 0.00 0.66 0.66 83 1010.3
20260507012124 20 276 1.6 3.2 0.00 0.66 0.66 83 1010.3
20260507011623 20 233 1.6 1.6 0.00 0.66 0.66 83 1010.4
20260507011119 20 261 1.6 3.2 0.00 0.66 0.66 83 1010.4
20260507010614 20 220 0.0 0.0 0.00 0.66 0.66 84 1010.4
20260507010110 20 270 1.6 1.6 0.00 0.66 0.66 84 1010.1
20260507005608 19 266 1.6 1.6 0.00 0.66 0.66 85 1010.3
20260507005104 19 250 0.0 0.0 0.00 0.66 0.66 85 1010.2
20260507004601 19 230 0.0 0.0 0.00 0.66 0.66 85 1010.3
20260507004058 19 229 0.0 0.0 0.00 0.66 0.66 85 1010.1
20260507003554 19 229 0.0 0.0 0.00 0.66 0.66 85 1010.2
20260507003049 20 229 0.0 0.0 0.00 0.66 0.66 84 1009.8
20260507002546 20 229 0.0 0.0 0.00 0.66 0.66 83 1010.0
20260507002042 20 185 0.0 0.0 0.00 0.66 0.66 82 1009.7
20260507001539 20 212 0.0 0.0 0.00 0.66 0.66 82 1009.8
20260507001036 20 222 0.0 0.0 0.00 0.66 0.66 82 1009.9
20260507000532 20 214 0.0 0.0 0.00 0.66 0.66 81 1009.7
20260507000028 20 214 0.0 0.0 0.00 0.66 0.66 81 1009.9
20260506235526 20 214 0.0 0.0 0.00 0.66 0.66 81 1009.7
20260506235021 20 214 0.0 0.0 0.00 0.66 0.66 80 1009.8
20260506234519 20 214 0.0 0.0 0.00 0.66 0.66 80 1009.8
20260506234016 20 203 0.0 0.0 0.00 0.66 0.66 80 1009.6
20260506233512 20 202 0.0 0.0 0.00 0.66 0.66 79 1009.6
20260506233009 20 208 0.0 0.0 0.00 0.66 0.66 80 1009.4
20260506232505 20 197 0.0 0.0 0.00 0.66 0.66 79 1009.3
20260506232001 20 231 0.0 0.0 0.00 0.66 0.66 79 1009.5
20260506231459 20 215 3.2 4.8 0.00 0.66 0.66 78 1009.3
20260506230956 20 191 0.0 0.0 0.00 0.66 0.66 79 1009.1
20260506230452 20 162 0.0 1.6 0.00 0.66 0.66 78 1009.2
20260506225949 20 211 1.6 3.2 0.00 0.66 0.66 78 1009.4
20260506225446 21 222 3.2 4.8 0.00 0.66 0.66 76 1009.1
20260506224943 21 198 0.0 0.0 0.00 0.66 0.66 77 1009.0
20260506224440 21 266 1.6 3.2 0.00 0.66 0.66 77 1008.9
20260506223936 21 248 1.6 1.6 0.00 0.66 0.66 77 1009.0
20260506223432 21 211 4.8 6.4 0.00 0.66 0.66 76 1009.1
20260506222930 21 201 0.0 1.6 0.00 0.66 0.66 77 1009.2
20260506222426 21 200 1.6 4.8 0.00 0.66 0.66 75 1009.1
20260506221923 21 236 0.0 1.6 0.00 0.66 0.66 76 1008.9
20260506221420 21 203 0.0 3.2 0.00 0.66 0.66 76 1008.9
20260506220918 21 219 3.2 4.8 0.00 0.66 0.66 75 1008.9
20260506220413 21 229 0.0 3.2 0.00 0.66 0.66 74 1009.0
20260506215910 22 218 1.6 6.4 0.00 0.66 0.66 73 1009.0
20260506215406 21 194 1.6 4.8 0.00 0.66 0.66 74 1008.8
20260506214902 22 199 4.8 9.7 0.00 0.66 0.66 73 1008.9
20260506214359 22 210 1.6 4.8 0.00 0.66 0.66 73 1008.8
20260506213857 21 207 1.6 4.8 0.00 0.66 0.66 74 1009.1
20260506213354 21 239 1.6 6.4 0.00 0.66 0.66 74 1009.1
20260506212851 21 283 3.2 6.4 0.00 0.66 0.66 75 1009.0
20260506212347 21 246 1.6 4.8 0.00 0.66 0.66 74 1008.8
20260506211842 21 240 3.2 4.8 0.00 0.66 0.66 74 1008.9
20260506211338 22 224 4.8 6.4 0.00 0.66 0.66 72 1008.8
20260506210836 22 210 1.6 6.4 0.00 0.66 0.66 72 1008.9
20260506210332 22 236 0.0 4.8 0.00 0.66 0.66 73 1008.7
20260506205830 21 233 3.2 4.8 0.00 0.66 0.66 73 1008.5
20260506205325 21 248 4.8 4.8 0.00 0.66 0.66 73 1008.3
20260506204822 21 239 4.8 4.8 0.00 0.66 0.66 72 1008.4
20260506204320 21 182 1.6 6.4 0.00 0.66 0.66 73 1008.5
20260506203817 22 230 1.6 6.4 0.00 0.66 0.66 73 1008.5
20260506203315 22 262 3.2 6.4 0.00 0.66 0.66 72 1008.6
20260506202811 21 239 3.2 6.4 0.00 0.66 0.66 73 1008.3
20260506202308 21 204 3.2 4.8 0.00 0.66 0.66 73 1008.4
20260506201804 21 234 3.2 6.4 0.00 0.66 0.66 74 1008.6
20260506201302 21 197 0.0 3.2 0.00 0.66 0.66 75 1008.5
20260506200759 21 227 3.2 17.7 0.00 0.66 0.66 75 1008.5
20260506200255 21 244 3.2 11.3 0.00 0.66 0.66 75 1008.6
20260506195751 21 217 3.2 9.7 0.00 0.66 0.66 74 1008.7
20260506195248 21 208 3.2 11.3 0.00 0.66 0.66 74 1008.7
20260506194745 21 199 1.6 4.8 0.00 0.66 0.66 75 1008.6
20260506194242 21 319 4.8 6.4 0.00 0.66 0.66 74 1008.6
20260506193740 21 248 1.6 9.7 0.00 0.66 0.66 74 1008.7
20260506193236 21 193 0.0 6.4 0.00 0.66 0.66 74 1008.6
20260506192732 21 237 1.6 14.5 0.00 0.66 0.66 75 1008.5
20260506192229 21 216 4.8 9.7 0.00 0.66 0.66 74 1008.6
20260506191726 21 169 1.6 3.2 0.00 0.66 0.66 77 1009.0
20260506191222 21 152 3.2 11.3 0.00 0.66 0.66 74 1008.9
20260506190720 21 227 3.2 6.4 0.00 0.66 0.66 74 1008.8
20260506190216 20 233 8.0 12.9 0.00 0.66 0.66 75 1008.9
20260506185714 20 228 3.2 9.7 0.00 0.66 0.66 77 1009.0
20260506185209 20 159 4.8 6.4 0.00 0.66 0.66 78 1009.2
20260506184707 20 213 3.2 9.7 0.00 0.66 0.66 78 1009.3
20260506184204 20 190 3.2 4.8 0.00 0.66 0.66 78 1009.1
20260506183701 20 259 1.6 4.8 0.00 0.66 0.66 78 1009.4
20260506183157 20 233 1.6 4.8 0.00 0.66 0.66 78 1009.1
20260506182654 20 212 6.4 9.7 0.00 0.66 0.66 76 1009.3
20260506182151 20 230 0.0 12.9 0.00 0.66 0.66 79 1009.4
20260506181649 20 242 1.6 3.2 0.00 0.66 0.66 79 1009.6
20260506181146 20 231 4.8 9.7 0.00 0.66 0.66 78 1009.3
20260506180644 20 221 4.8 9.7 0.00 0.66 0.66 78 1009.6
20260506180139 20 224 4.8 12.9 0.00 0.66 0.66 75 1009.6
20260506175636 20 186 0.0 4.8 0.00 0.66 0.66 78 1009.3
20260506175132 20 232 6.4 9.7 0.00 0.66 0.66 77 1009.5
20260506174631 20 276 3.2 4.8 0.00 0.66 0.66 78 1009.6
20260506174127 20 234 4.8 6.4 0.00 0.66 0.66 80 1009.6
20260506173625 19 227 4.8 9.7 0.00 0.66 0.66 81 1009.7
20260506173122 19 240 4.8 6.4 0.00 0.66 0.66 80 1009.6
20260506172619 19 207 4.8 6.4 0.00 0.66 0.66 81 1009.6
20260506172115 19 200 4.8 11.3 0.00 0.66 0.66 81 1009.6
20260506171613 18 198 1.6 4.8 0.00 0.66 0.66 82 1009.7
20260506171110 18 223 1.6 9.7 0.00 0.66 0.66 81 1009.6
20260506170607 18 107 4.8 11.3 0.00 0.66 0.66 82 1009.8
20260506170105 18 208 6.4 12.9 0.00 0.66 0.66 83 1009.8
20260506165603 18 214 6.4 12.9 0.00 0.66 0.66 83 1009.7
20260506165059 18 201 3.2 14.5 0.00 0.66 0.66 84 1009.7
20260506164556 18 162 3.2 12.9 0.00 0.66 0.66 84 1009.8
20260506164054 18 191 6.4 12.9 0.00 0.66 0.66 85 1009.7
20260506163549 18 237 4.8 12.9 0.00 0.66 0.66 87 1009.8
20260506163046 18 186 3.2 11.3 0.00 0.66 0.66 89 1009.8
20260506162542 17 181 3.2 9.7 0.00 0.66 0.66 90 1009.9
20260506162039 17 211 6.4 12.9 0.00 0.66 0.66 91 1010.0
20260506161537 17 222 6.4 14.5 0.00 0.66 0.66 91 1009.9
20260506161033 17 243 8.0 24.1 0.00 0.66 0.66 91 1009.7
20260506160531 17 192 3.2 12.9 0.00 0.66 0.66 93 1010.0
20260506160028 17 177 9.7 12.9 0.00 0.66 0.66 93 1009.9
20260506155526 16 233 1.6 22.5 0.00 0.66 0.66 94 1009.9
20260506153657 16 190 9.7 16.1 0.00 0.66 0.66 95 1010.2
20260506153155 16 210 3.2 6.4 0.00 0.66 0.66 96 1010.4
20260506152652 16 215 3.2 6.4 0.13 0.66 0.66 96 1010.4
20260506152149 16 219 1.6 14.5 0.13 0.66 0.66 96 1010.4
20260506151648 15 201 3.2 4.8 0.18 0.64 0.64 96 1010.2
20260506151144 15 185 8.0 17.7 0.30 0.64 0.64 95 1010.3
20260506150641 15 157 1.6 9.7 0.13 0.61 0.61 95 1010.6
20260506150138 15 171 8.0 11.3 0.18 0.58 0.58 95 1010.6
20260506145635 16 160 4.8 25.7 0.18 0.58 0.58 95 1010.4
20260506145131 16 80 1.6 6.4 0.13 0.56 0.56 95 1011.0
20260506144629 16 206 1.6 6.4 0.00 0.53 0.53 96 1011.0
20260506144125 15 176 3.2 4.8 0.00 0.53 0.53 95 1011.0
20260506143623 16 193 3.2 4.8 0.00 0.53 0.53 95 1010.9
20260506143121 15 237 1.6 4.8 0.18 0.53 0.53 96 1011.1
20260506142619 15 162 1.6 4.8 0.18 0.53 0.53 95 1011.0
20260506142117 15 185 1.6 6.4 0.00 0.51 0.51 95 1010.9
20260506141614 15 279 3.2 4.8 0.13 0.51 0.51 95 1010.8
20260506141113 15 212 0.0 6.4 0.30 0.51 0.51 95 1010.9